Weather reports worldwide

Advertisment
South Uist Range, United Kingdom (3023): temperature & dewpoint: 09.12.2019 18:00:00 - 15.12.2019 18:00:00 (GMT)South Uist Range, United Kingdom (3023): temperature -20cm & temperature -100cm: 09.12.2019 18:00:00 - 15.12.2019 18:00:00 (GMT)South Uist Range, United Kingdom (3023): wind speed & gusts: 09.12.2019 18:00:00 - 15.12.2019 18:00:00 (GMT)South Uist Range, United Kingdom (3023): wind direction: 09.12.2019 18:00:00 - 15.12.2019 18:00:00 (GMT)South Uist Range, United Kingdom (3023): reduced air pressure: 09.12.2019 18:00:00 - 15.12.2019 18:00:00 (GMT)South Uist Range, United Kingdom (3023): visibility: 09.12.2019 18:00:00 - 15.12.2019 18:00:00 (GMT)South Uist Range, United Kingdom (3023): precipitation: 09.12.2019 18:00:00 - 15.12.2019 18:00:00 (GMT)
Date & Time tt [°C] td [°C] tt -20cm [°C] tt -100cm [°C] ff [km/h] ff [kn] fx [km/h] fx [kn] dd ppp [hPa] vv [km] rr [mm]
15.12.2019 18:00:00 - - - - - - - - - - - -
15.12.2019 17:00:00 5,8 -0,9 - - 52 28 68 37 SW 980,7 35 0,0
15.12.2019 16:00:00 5,6 -0,6 - - 52 28 72 39 SW 980,6 30 0,0
15.12.2019 15:00:00 6,0 -0,8 - - 52 28 70 38 WSW 980,4 35 0,0
15.12.2019 14:00:00 6,1 -1,1 - - 52 28 68 37 WSW 980,3 45 0,0
15.12.2019 13:00:00 6,1 -0,5 - - 52 28 67 36 WSW 980,0 35 0,0
15.12.2019 12:00:00 6,0 -1,7 - - 52 28 68 37 WSW 979,8 50 0,0
15.12.2019 11:00:00 5,9 -1,4 - - 48 26 61 33 WSW 979,4 40 0,0
15.12.2019 10:00:00 5,9 -0,7 - - 48 26 61 33 W 978,8 40 0,0
15.12.2019 09:00:00 5,0 2,4 6,2 8,0 39 21 54 29 WSW 978,1 29 0,0
15.12.2019 08:00:00 4,1 0,8 - - 34 18 59 32 W 977,6 35 0,0
15.12.2019 07:00:00 5,0 1,8 - - 29 16 54 29 W 976,9 35 0,0
15.12.2019 06:00:00 4,5 1,5 - - 39 21 55 30 WSW 976,5 35 0,0
15.12.2019 05:00:00 4,7 0,3 - - 37 20 48 26 W 976,1 40 0,0
15.12.2019 04:00:00 4,9 -1,7 - - 34 18 - - W 975,7 65 0,0
15.12.2019 03:00:00 4,4 1,0 - - 26 14 - - WSW 975,7 60 0,0
15.12.2019 02:00:00 4,6 0,3 - - 24 13 - - WNW 975,7 75 0,0
15.12.2019 01:00:00 4,5 0,5 - - 21 11 - - WNW 975,6 75 0,0
15.12.2019 00:00:00 4,4 0,3 - - 22 12 - - WNW 975,5 60 0,0
14.12.2019 23:00:00 4,3 1,4 - - 15 8 - - W 975,4 30 0,8
14.12.2019 22:00:00 3,8 1,7 - - 13 7 - - NW 975,2 50 0,0
14.12.2019 21:00:00 3,0 1,8 - - 11 6 - - WNW 975,3 30 1,0
14.12.2019 20:00:00 3,0 1,0 - - 16 9 - - N 974,9 60 0,0
14.12.2019 19:00:00 4,0 1,2 - - 29 16 - - NW 974,4 30 0,0
14.12.2019 18:00:00 4,4 -1,1 - - 15 8 - - NNW 973,8 75 0,0
14.12.2019 17:00:00 3,9 0,2 - - 15 8 - - N 973,3 40 0,0
14.12.2019 16:00:00 3,7 -0,7 - - 24 13 - - N 972,8 70 0,0
14.12.2019 15:00:00 4,1 0,8 - - 22 12 - - N 972,4 60 0,0
14.12.2019 14:00:00 4,5 1,3 - - 28 15 - - NNE 971,8 45 0,0
14.12.2019 13:00:00 4,3 2,4 - - 29 16 - - NNE 971,7 19 0,2
14.12.2019 12:00:00 4,1 2,1 - - 29 16 - - NNE 971,8 14 0,2
14.12.2019 11:00:00 4,3 2,3 - - 24 13 - - NNE 971,6 45 0,4
14.12.2019 10:00:00 3,9 2,6 - - 18 10 - - NE 971,7 5 1,4
14.12.2019 09:00:00 4,6 3,5 6,7 8,2 28 15 - - ENE 971,4 4,8 1,0
14.12.2019 08:00:00 4,5 3,5 - - 24 13 - - ENE 971,2 2,1 0,8
14.12.2019 07:00:00 3,9 3,0 - - 8 4 - - SE 971,4 4,4 1,4
14.12.2019 06:00:00 3,8 2,9 - - 5 3 - - SW 971,6 2,5 3,8
14.12.2019 05:00:00 4,6 3,5 - - 15 8 - - E 971,4 3,4 1,6
14.12.2019 04:00:00 3,5 2,1 - - 2 1 - - NNW 971,5 55 0,0
14.12.2019 03:00:00 3,9 2,1 - - 8 4 - - NE 971,7 55 0,0
14.12.2019 02:00:00 3,7 2,6 - - 16 9 - - NNE 971,6 60 0,0
14.12.2019 01:00:00 3,6 2,7 - - 15 8 - - NNE 971,6 45 0,0
14.12.2019 00:00:00 3,7 2,6 - - 13 7 - - NNE 971,8 50 0,2
13.12.2019 23:00:00 4,9 3,2 - - 9 5 - - NNE 971,9 50 0,0
13.12.2019 22:00:00 5,2 3,8 - - 26 14 - - E 972,2 30 3,6
13.12.2019 21:00:00 5,3 3,7 - - 28 15 - - ENE 972,5 1,5 1,2
13.12.2019 20:00:00 5,1 4,1 - - 18 10 - - NNE 972,7 75 0,0
13.12.2019 19:00:00 5,3 4,3 - - 16 9 - - NE 973,0 65 0,0
13.12.2019 18:00:00 4,7 3,7 - - 11 6 - - NNE 973,3 35 3,0
13.12.2019 17:00:00 5,1 4,0 - - 5 3 - - E 974,0 30 5,2
13.12.2019 16:00:00 5,3 4,4 - - 8 4 - - NE 974,5 21 1,0
13.12.2019 15:00:00 5,5 4,3 - - 15 8 - - NNE 974,6 50 0,2
13.12.2019 14:00:00 6,1 4,9 - - 15 8 - - NNE 975,2 55 0,0
13.12.2019 13:00:00 5,6 4,7 - - 15 8 - - NNE 975,7 60 0,2
13.12.2019 12:00:00 5,5 4,4 - - 11 6 - - N 976,1 8 0,0
13.12.2019 11:00:00 4,8 4,0 - - 24 13 - - NNE 975,7 75 0,0
13.12.2019 10:00:00 3,7 2,8 - - 13 7 - - N 975,8 30 0,0
13.12.2019 09:00:00 4,4 3,2 6,9 8,4 21 11 - - N 975,5 30 0,0
13.12.2019 08:00:00 5,2 4,2 - - 21 11 - - NNE 975,0 75 0,0
13.12.2019 07:00:00 4,1 3,1 - - 16 9 - - NNE 974,5 75 0,0
13.12.2019 06:00:00 3,5 2,6 - - 18 10 - - NNE 973,6 75 0,0
13.12.2019 05:00:00 4,0 3,1 - - 18 10 - - N 972,8 65 0,0
13.12.2019 04:00:00 4,2 3,4 - - 16 9 - - NNE 972,5 75 0,0
13.12.2019 03:00:00 4,6 3,7 - - 11 6 - - NNE 972,0 75 0,0
13.12.2019 02:00:00 5,0 4,0 - - 9 5 - - ENE 971,5 75 0,2
13.12.2019 01:00:00 5,2 4,1 - - 9 5 - - ESE 971,1 35 0,2
13.12.2019 00:00:00 5,6 3,9 - - 15 8 - - ESE 971,0 12 0,0
12.12.2019 23:00:00 5,6 3,9 - - 18 10 - - ESE 970,8 24 0,0
12.12.2019 22:00:00 5,9 4,0 - - 29 16 - - SE 970,7 75 0,0
12.12.2019 21:00:00 5,8 4,4 - - 29 16 50 27 ESE 970,7 35 0,4
12.12.2019 20:00:00 6,1 4,8 - - 28 15 50 27 SE 970,8 13 0,0
12.12.2019 19:00:00 6,2 4,8 - - 34 18 48 26 SE 971,1 11 0,4
12.12.2019 18:00:00 6,0 4,8 - - 31 17 52 28 SE 971,5 7 0,2
12.12.2019 17:00:00 6,1 5,3 - - 37 20 50 27 SE 972,3 4,3 0,6
12.12.2019 16:00:00 6,4 5,3 - - 29 16 - - SE 973,4 5 0,8
12.12.2019 15:00:00 6,4 4,1 - - 22 12 - - SSE 974,8 75 0,0
12.12.2019 14:00:00 6,6 4,7 - - 15 8 - - S 976,2 75 0,0
12.12.2019 13:00:00 6,1 5,0 - - 9 5 - - SSE 977,5 75 0,0
12.12.2019 12:00:00 5,1 4,0 - - 11 6 - - SSE 979,0 75 0,0
12.12.2019 11:00:00 4,3 3,2 - - 9 5 - - SSE 980,1 75 0,0
12.12.2019 10:00:00 3,6 2,5 - - 15 8 - - SSE 981,0 75 0,0
12.12.2019 09:00:00 4,2 2,9 7,0 8,4 15 8 - - S 981,8 55 0,8
12.12.2019 08:00:00 3,9 2,8 - - 18 10 - - SSE 982,4 8 0,0
12.12.2019 07:00:00 3,6 2,1 - - 8 4 - - SSE 983,1 30 1,0
12.12.2019 06:00:00 5,0 1,1 - - 18 10 - - SSW 983,7 17 0,0
12.12.2019 05:00:00 5,8 1,7 - - 28 15 - - WSW 984,3 24 0,0
12.12.2019 04:00:00 5,6 1,3 - - 29 16 54 29 WSW 984,6 26 0,0
12.12.2019 03:00:00 6,0 2,3 - - 39 21 57 31 WSW 985,2 26 0,0
12.12.2019 02:00:00 6,0 1,4 - - 34 18 67 36 WSW 985,8 30 0,0
12.12.2019 01:00:00 6,3 1,0 - - 41 22 55 30 WSW 986,1 30 0,0
12.12.2019 00:00:00 6,2 1,9 - - 46 25 74 40 WSW 986,6 25 0,6
11.12.2019 23:00:00 5,5 0,9 - - 42 23 63 34 W 986,9 27 0,0
11.12.2019 22:00:00 7,1 1,3 - - 46 25 68 37 W 986,7 24 0,0
11.12.2019 21:00:00 7,1 1,0 - - 50 27 68 37 W 986,9 20 0,2
11.12.2019 20:00:00 6,8 1,9 - - 55 30 81 44 W 986,6 14 0,0
11.12.2019 19:00:00 7,2 1,0 - - 61 33 83 45 W 986,5 19 0,2
11.12.2019 18:00:00 5,5 0,9 - - 57 31 102 55 W 986,0 1,6 0,0
11.12.2019 17:00:00 7,4 1,1 - - 63 34 85 46 W 985,4 16 0,2
11.12.2019 16:00:00 7,1 2,4 - - 63 34 91 49 W 984,9 14 0,4
11.12.2019 15:00:00 6,7 2,7 - - 57 31 94 51 W 984,5 11 0,2
11.12.2019 14:00:00 6,5 3,3 - - 54 29 83 45 W 984,3 14 0,4
11.12.2019 13:00:00 6,2 4,6 - - 54 29 85 46 WSW 984,6 23 0,4
11.12.2019 12:00:00 4,8 3,8 - - 67 36 91 49 W 984,7 6 0,0
11.12.2019 11:00:00 6,6 3,0 - - 61 33 85 46 SW 984,3 16 0,0
11.12.2019 10:00:00 5,6 3,3 - - 61 33 91 49 W 984,4 26 0,2
11.12.2019 09:00:00 6,8 1,7 7,4 8,5 61 33 83 45 WSW 984,5 19 0,0
11.12.2019 08:00:00 6,0 2,0 - - 55 30 76 41 SW 984,7 24 0,0
11.12.2019 07:00:00 6,9 0,2 - - 57 31 72 39 WSW 984,6 30 0,0
11.12.2019 06:00:00 6,3 2,2 - - 55 30 72 39 WSW 984,6 23 0,0
11.12.2019 05:00:00 5,5 2,0 - - 52 28 87 47 SW 985,1 30 0,0
11.12.2019 04:00:00 5,6 3,7 - - 57 31 85 46 SW 985,9 22 0,4
11.12.2019 03:00:00 6,3 2,5 - - 52 28 87 47 W 985,9 17 0,0
11.12.2019 02:00:00 5,3 2,5 - - 46 25 81 44 W 986,4 16 0,2
11.12.2019 01:00:00 6,1 2,9 - - 59 32 91 49 WSW 986,5 24 0,4
11.12.2019 00:00:00 6,7 2,7 - - 50 27 93 50 WSW 986,4 13 0,0
10.12.2019 23:00:00 6,9 1,0 - - 67 36 91 49 W 985,7 19 0,0
10.12.2019 22:00:00 7,2 2,0 - - 63 34 87 47 W 984,7 17 0,0
10.12.2019 21:00:00 7,3 3,3 - - 57 31 83 45 WSW 983,8 22 0,0
10.12.2019 20:00:00 7,8 2,5 - - 63 34 89 48 W 982,6 20 0,0
10.12.2019 19:00:00 7,6 3,8 - - 59 32 89 48 WSW 981,8 16 0,0
10.12.2019 18:00:00 7,6 3,8 - - 59 32 106 57 W 981,1 16 0,2
10.12.2019 17:00:00 7,7 2,9 - - 57 31 78 42 WSW 980,8 20 0,0
10.12.2019 16:00:00 7,6 3,7 - - 57 31 83 45 WSW 980,5 18 0,0
10.12.2019 15:00:00 7,6 2,7 - - 63 34 81 44 WSW 980,4 20 0,0
10.12.2019 14:00:00 7,2 5,2 - - 48 26 78 42 WSW 979,9 29 0,4
10.12.2019 13:00:00 7,2 6,5 - - 54 29 68 37 W 979,7 7 0,6
10.12.2019 12:00:00 7,8 7,4 - - 46 25 93 50 W 978,6 7 1,0
10.12.2019 11:00:00 10,9 10,7 - - 65 35 91 49 SSW 976,2 1,4 0,2
10.12.2019 10:00:00 11,0 10,8 - - 70 38 93 50 SSW 977,5 3,8 0,2
10.12.2019 09:00:00 10,8 10,6 7,4 8,5 74 40 100 54 SSW 979,2 2,1 1,4
10.12.2019 08:00:00 9,5 9,5 - - 65 35 87 47 S 981,4 6 2,2
10.12.2019 07:00:00 8,8 8,7 - - 67 36 89 48 S 983,5 1,8 1,8
10.12.2019 06:00:00 8,6 8,3 - - 67 36 87 47 S 986,7 6 2,4
10.12.2019 05:00:00 8,0 7,7 - - 68 37 98 53 S 989,6 4,8 2,0
10.12.2019 04:00:00 7,6 6,8 - - 67 36 94 51 S 992,3 2,3 0,4
10.12.2019 03:00:00 8,4 6,6 - - 65 35 85 46 S 995,1 10 0,0
10.12.2019 02:00:00 7,8 6,9 - - 61 33 85 46 S 997,4 18 0,2
10.12.2019 01:00:00 8,0 6,4 - - 61 33 81 44 S 1000,7 8 0,0
10.12.2019 00:00:00 8,5 6,9 - - 52 28 70 38 S 1002,8 24 0,0
09.12.2019 23:00:00 8,8 7,4 - - 55 30 78 42 SSW 1004,8 21 0,2
09.12.2019 22:00:00 8,7 7,8 - - 42 23 59 32 SSW 1007,0 20 0,0
09.12.2019 21:00:00 8,5 8,0 - - 42 23 57 31 S 1008,6 27 0,4
09.12.2019 20:00:00 8,4 7,9 - - 37 20 50 27 S 1009,9 13 0,0
09.12.2019 19:00:00 7,8 7,3 - - 42 23 59 32 SSW 1011,1 2,7 0,4
09.12.2019 18:00:00 7,1 6,4 - - 34 18 48 26 SSW 1011,7 7 0,0

tt = temperature
td = dewpoint
tt -20cm = temperature -20cm
tt -100cm = temperature -100cm
ff = wind speed
fx = gusts
dd = wind direction
ppp = reduced air pressure
vv = visibility
rr = precipitation

Next stations